Hourly Data Report for October 03, 2015

All times are specified in Local Standard Time (LST). Add 1 hour to adjust for Daylight Saving Time where and when it is observed.

IQALUIT CLIMATE
NUNAVUT

63°44'50.000" N
68°32'40.000" W
33.50 m
2402592
71321
XFB

Download Data

Hourly Data (October 2015)
Hourly Data Report for October 3, 2015
Temp Definition
°C
Dew Point Temp Definition
°C
Rel Hum Definition
%
Wind Dir Definition
10's deg

Wind Spd Definition
km/h
Visibility Definition
km
Stn Press Definition
kPa
Hmdx Definition


Wind Chill Definition


Weather Definition


TIME
00:00 0.0 -1.7 89 25 2   102.83   -1 LegendNANA
01:00 0.1 -1.3 90 36 7   102.83     LegendNANA
02:00 0.3 -1.7 86 14 4   102.73     LegendNANA
03:00 0.2 -1.5 89 27 5   102.74     LegendNANA
04:00 0.2 -1.4 89 33 7   102.74     LegendNANA
05:00 0.6 -1.5 86   0   102.69     LegendNANA
06:00 0.5 -1.4 87 26 2   102.65     LegendNANA
07:00 0.4 -1.0 91 20 1   102.66     LegendNANA
08:00 0.6 -0.5 92 15 3   102.60     LegendNANA
09:00 0.5 -1.2 89 14 6   102.51     LegendNANA
10:00 0.8 -1.5 84 17 9   102.46     LegendNANA
11:00 0.1 -0.9 93 16 9   102.38     LegendNANA
12:00 0.1 -0.5 96 14 12   102.30     LegendNANA
13:00 0.3 -0.5 94 16 12   102.22     LegendNANA
14:00 1.0 0.0 93 14 17   102.11     LegendNANA
15:00 1.1 -0.1 92 14 19   102.00     LegendNANA
16:00 1.5 0.5 93 15 15   101.88     LegendNANA
17:00 2.8 1.2 89 14 14   101.80     LegendNANA
18:00 3.5 1.8 89 18 11   101.68     LegendNANA
19:00 4.2 2.1 86 13 11   101.55     LegendNANA
20:00 4.7 2.7 87 11 4   101.42     LegendNANA
21:00 7.8 4.3 78 22 6   101.31     LegendNANA
22:00 7.9 3.5 74 25 9   101.15     LegendNANA
23:00 7.0 3.3 77 15 3   101.13     LegendNANA

Notes on Data Quality.

Legend

  • E = Estimated
  • M = Missing
  • NA = Not Available
  • ‡ = Partner data that is not subject to review by the National Climate Archives
Date modified: